AD2FB Weather Reports


time (UTC)temp
F
wind
direction
speed
knots
gust
knots
rain 1hr
in
rain 24hr
in
rain mn
in
humidity
%
barometer
mb
20260507101054 33 338 0.0 1.7 0.00 0.47 0.00 99 1013.2
20260507100023 33 0.0 0.0 0.00 0.48 0.00 99 1013.2
20260507095031 33 274 0.0 1.7 0.00 0.48 0.00 99 1013.1
20260507094021 34 0.0 0.0 0.00 0.49 0.00 99 1013.1
20260507093028 34 0.0 0.0 0.00 0.50 0.00 99 1013.1
20260507092036 35 0.0 0.0 0.00 0.51 0.00 99 1013.1
20260507091046 36 0.0 0.0 0.00 0.52 0.00 99 1013.1
20260507090034 36 0.0 0.0 0.00 0.52 0.00 99 1013.4
20260507085023 36 0.0 0.0 0.00 0.52 0.00 98 1013.4
20260507084032 37 0.0 0.0 0.00 0.53 0.00 96 1013.4
20260507083021 38 0.0 0.0 0.00 0.53 0.00 97 1013.4
20260507082028 39 0.0 0.0 0.00 0.53 0.00 97 1013.4
20260507081057 40 0.0 0.0 0.00 0.53 0.00 96 1013.3
20260507080027 41 136 0.9 1.7 0.00 0.53 0.00 94 1013.3
20260507075035 41 0.0 0.0 0.00 0.53 0.00 92 1013.3
20260507074024 42 0.0 0.0 0.00 0.54 0.00 91 1013.3
20260507073032 42 0.0 0.0 0.00 0.54 0.00 89 1013.3
20260507072022 42 270 0.0 1.7 0.00 0.54 0.00 86 1013.1
20260507071029 42 270 0.0 0.9 0.00 0.54 0.00 85 1013.1
20260507070019 43 270 0.9 2.6 0.00 0.54 0.00 85 1013.1
20260507065027 43 289 0.9 1.7 0.00 0.54 0.00 85 1013.4
20260507064035 43 300 0.9 1.7 0.00 0.54 0.00 86 1013.4
20260507063025 44 223 0.0 1.7 0.00 0.54 0.00 88 1013.4
20260507062033 44 322 1.7 3.5 0.00 0.54 0.00 89 1013.3
20260507061042 44 305 0.9 1.7 0.00 0.54 0.00 91 1013.3
20260507060030 44 311 1.7 3.5 0.00 0.54 0.00 91 1013.4
20260507055019 44 267 0.9 3.5 0.00 0.54 0.00 90 1013.4
20260507054028 44 307 1.7 3.5 0.00 0.54 0.00 90 1013.4
20260507053035 45 299 1.7 4.3 0.00 0.54 0.00 89 1013.2
20260507052025 45 279 1.7 3.5 0.00 0.54 0.00 88 1013.3
20260507051033 45 290 2.6 3.5 0.00 0.54 0.00 88 1013.3
20260507050022 45 309 2.6 4.3 0.00 0.54 0.00 87 1013.3
20260507045050 45 273 2.6 5.2 0.00 0.54 0.00 87 1013.3
20260507044019 46 253 2.6 4.3 0.00 0.54 0.00 87 1013.3
20260507043108 46 321 3.5 5.2 0.00 0.54 0.00 86 1013.2
20260507042035 46 349 3.5 6.1 0.00 0.54 0.00 86 1013.0
20260507041025 46 316 3.5 5.2 0.00 0.54 0.00 87 1013.2
20260507040033 46 270 2.6 4.3 0.00 0.54 0.00 87 1013.1
20260507035025 46 255 1.7 4.3 0.00 0.54 0.54 88 1012.8
20260507034030 46 276 0.9 1.7 0.00 0.54 0.54 87 1012.4
20260507033039 46 276 1.7 3.5 0.00 0.54 0.54 86 1012.3
20260507032027 46 301 0.9 2.6 0.00 0.54 0.54 89 1012.2
20260507031035 47 296 0.9 3.5 0.00 0.54 0.54 92 1012.5
20260507030025 47 293 0.0 1.7 0.00 0.54 0.54 92 1012.5
20260507025033 47 184 0.9 2.6 0.00 0.54 0.54 91 1012.5
20260507024022 47 281 1.7 3.5 0.00 0.54 0.54 95 1012.5
20260507023030 47 277 2.6 5.2 0.00 0.54 0.54 98 1012.5
20260507022040 47 302 1.7 3.5 0.00 0.54 0.54 99 1012.4
20260507021028 47 319 0.0 1.7 0.00 0.54 0.54 99 1012.6
20260507020035 47 0.0 0.0 0.00 0.54 0.54 99 1012.7
20260507015025 47 270 0.0 2.6 0.00 0.54 0.54 99 1012.7
20260507014033 47 0.0 0.0 0.00 0.54 0.54 99 1012.5
20260507013024 47 0.0 0.0 0.00 0.54 0.54 99 1012.6
20260507012030 47 0.0 0.0 0.00 0.54 0.54 99 1012.6
20260507011020 47 0.0 0.0 0.00 0.54 0.54 99 1012.5
20260507010028 47 0.0 0.0 0.00 0.54 0.54 99 1012.3
20260507005037 47 158 0.0 1.7 0.00 0.54 0.54 98 1012.2
20260507004025 47 0.0 0.0 0.00 0.54 0.54 97 1012.2
20260507003033 48 0.0 0.0 0.00 0.54 0.54 98 1011.9
20260507002023 48 0.0 0.0 0.00 0.54 0.54 96 1011.9
20260507001031 49 0.0 0.0 0.00 0.54 0.54 95 1011.8
20260507000022 49 0.0 0.0 0.00 0.54 0.54 93 1011.6
20260506235049 49 270 0.9 1.7 0.00 0.54 0.54 92 1011.6
20260506234036 50 0.0 0.0 0.00 0.54 0.54 92 1011.5
20260506233026 50 0.0 0.0 0.00 0.54 0.54 92 1011.5
20260506232034 50 0.0 0.0 0.00 0.54 0.54 90 1011.5
20260506231023 51 0.0 0.0 0.00 0.54 0.54 91 1011.4
20260506230051 51 0.0 0.0 0.00 0.54 0.54 90 1011.4
20260506225021 51 286 0.9 1.7 0.00 0.54 0.54 89 1011.3
20260506224029 51 0.0 0.0 0.00 0.54 0.54 91 1011.3
20260506223057 51 270 0.0 0.9 0.00 0.54 0.54 91 1011.2
20260506222026 50 274 0.9 2.6 0.00 0.54 0.54 91 1011.2
20260506221034 50 0.0 0.0 0.00 0.54 0.54 91 1011.2
20260506220023 50 270 0.0 0.9 0.00 0.54 0.54 93 1010.8
20260506215032 50 314 0.9 2.6 0.00 0.54 0.54 95 1010.8
20260506214021 50 288 0.9 2.6 0.00 0.54 0.54 96 1011.0
20260506213029 49 261 0.9 2.6 0.00 0.54 0.54 97 1010.9
20260506212019 49 294 1.7 2.6 0.00 0.54 0.54 97 1010.8
20260506211027 49 305 1.7 3.5 0.00 0.54 0.54 96 1010.8
20260506210037 50 270 0.0 3.5 0.00 0.54 0.54 96 1010.8
20260506205024 50 306 1.7 3.5 0.00 0.54 0.54 96 1010.6
20260506204031 50 296 1.7 3.5 0.00 0.54 0.54 94 1010.5
20260506203021 50 277 0.9 1.7 0.00 0.54 0.54 93 1010.5
20260506202029 50 283 0.9 3.5 0.00 0.54 0.54 94 1010.3
20260506201037 50 296 2.6 3.5 0.00 0.54 0.54 95 1010.3
20260506200027 49 334 2.6 4.3 0.00 0.55 0.54 94 1010.2
20260506195034 50 316 3.5 5.2 0.00 0.55 0.54 93 1010.0
20260506194024 50 306 3.5 5.2 0.00 0.55 0.54 92 1009.9
20260506193032 50 298 1.7 3.5 0.00 0.55 0.54 92 1009.8
20260506192021 50 301 2.6 4.3 0.00 0.55 0.54 92 1009.8
20260506191029 50 283 2.6 4.3 0.00 0.55 0.54 93 1009.8
20260506190019 50 314 3.5 5.2 0.00 0.55 0.54 91 1009.7
20260506185027 51 281 1.7 3.5 0.00 0.55 0.54 94 1009.7
20260506184054 50 304 2.6 4.3 0.00 0.55 0.54 94 1009.7
20260506183044 50 353 1.7 3.5 0.00 0.56 0.54 97 1009.7
20260506182032 49 294 2.6 4.3 0.00 0.56 0.54 98 1009.6
20260506181022 49 302 1.7 3.5 0.00 0.57 0.54 98 1009.5
20260506180029 50 282 2.6 5.2 0.00 0.62 0.54 98 1009.3
20260506175019 50 278 1.7 4.3 0.01 0.65 0.54 97 1009.1
20260506174027 50 298 2.6 3.5 0.01 0.65 0.54 97 1009.0
20260506173035 50 335 2.6 5.2 0.01 0.65 0.54 98 1009.0
20260506172024 49 298 3.5 5.2 0.01 0.65 0.54 98 1009.0
20260506171032 49 318 2.6 4.3 0.02 0.65 0.54 99 1009.0
20260506170022 49 282 2.6 5.2 0.02 0.65 0.54 98 1008.6
20260506165030 49 293 2.6 3.5 0.01 0.64 0.53 99 1008.7
20260506164019 49 284 1.7 3.5 0.01 0.64 0.53 99 1008.8
20260506163027 49 269 1.7 4.3 0.01 0.64 0.53 99 1008.8
20260506162035 49 313 2.6 3.5 0.01 0.64 0.53 99 1008.7
20260506161025 48 270 1.7 3.5 0.00 0.63 0.52 99 1008.7
20260506160033 48 275 3.5 4.3 0.01 0.63 0.52 99 1008.7
20260506155022 48 285 1.7 2.6 0.01 0.63 0.52 99 1008.5
20260506154030 48 263 0.9 2.6 0.02 0.63 0.52 99 1008.5
20260506153039 48 291 1.7 2.6 0.02 0.63 0.52 99 1008.5
20260506152027 47 292 0.9 3.5 0.03 0.63 0.52 99 1008.4
20260506151036 47 0.0 0.0 0.03 0.63 0.52 99 1008.3
20260506150025 46 270 0.9 1.7 0.03 0.62 0.51 99 1008.5
20260506145033 46 0.0 0.0 0.03 0.62 0.51 99 1008.2
20260506144042 46 326 1.7 3.5 0.03 0.61 0.50 99 1008.2
20260506143030 47 270 0.9 5.2 0.04 0.61 0.50 99 1008.0
20260506142020 47 64 0.9 2.6 0.04 0.60 0.49 99 1007.7
20260506141028 47 7 0.9 2.6 0.06 0.60 0.49 99 1007.7
20260506140056 46 307 0.9 2.6 0.07 0.59 0.48 99 1007.7
20260506135046 46 301 1.7 4.3 0.10 0.59 0.48 99 1007.7
20260506134033 46 336 2.6 3.5 0.13 0.58 0.47 99 1007.7
20260506133023 46 53 0.9 3.5 0.16 0.57 0.46 99 1007.7
20260506132031 47 333 2.6 4.3 0.18 0.56 0.45 99 1007.7
20260506131020 47 337 3.5 5.2 0.19 0.54 0.43 99 1007.7
20260506130028 47 346 3.5 7.8 0.20 0.52 0.41 99 1007.5
20260506125036 48 84 3.5 6.1 0.19 0.49 0.38 99 1007.7
20260506124026 49 305 1.7 3.5 0.17 0.45 0.34 99 1007.4
20260506123034 49 233 1.7 2.6 0.14 0.41 0.30 99 1007.7
20260506122023 49 98 2.6 5.2 0.11 0.38 0.27 99 1007.7
20260506121031 49 324 1.7 4.3 0.09 0.35 0.24 99 1007.5
20260506120021 49 337 2.6 4.3 0.07 0.32 0.21 99 1007.1
20260506115028 49 346 1.7 3.5 0.06 0.30 0.19 99 1007.0
20260506114036 49 84 2.6 3.5 0.06 0.28 0.17 99 1007.0
20260506113026 49 289 1.7 2.6 0.06 0.27 0.16 99 1007.0
20260506112034 49 32 2.6 4.3 0.08 0.27 0.16 99 1007.0
20260506111024 49 197 0.9 1.7 0.08 0.26 0.15 99 1007.1
20260506110031 49 293 0.0 1.7 0.08 0.25 0.14 99 1007.1
20260506105021 49 64 0.9 2.6 0.07 0.24 0.13 99 1007.1
20260506104030 49 123 0.9 2.6 0.06 0.22 0.11 99 1007.2
20260506103037 49 45 0.0 0.9 0.06 0.21 0.10 99 1007.2
20260506102027 49 113 0.0 0.9 0.05 0.19 0.08 99 1007.2